EW5095 Weather Reports


time (UTC)temp
C
wind
direction
speed
KPH
gust
KPH
rain 1hr
cm
rain 24hr
cm
rain mn
cm
humidity
%
barometer
mb
20260906215005 37 129 14.5 24.1 0.00 0.00 0.00 30 1009.4
20260906214505 37 141 16.1 25.7 0.00 0.00 0.00 30 1009.5
20260906213504 37 101 11.3 20.9 0.00 0.00 0.00 31 1009.5
20260906213005 36 173 12.9 20.9 0.00 0.00 0.00 31 1009.5
20260906212504 36 159 9.7 20.9 0.00 0.00 0.00 32 1009.6
20260906211505 36 205 11.3 22.5 0.00 0.00 0.00 32 1009.9
20260906211004 36 193 11.3 24.1 0.00 0.00 0.00 31 1010.1
20260906210505 36 158 12.9 24.1 0.00 0.00 0.00 31 1010.2
20260906210004 36 124 14.5 24.1 0.00 0.00 0.00 31 1010.3
20260906204505 36 146 12.9 20.9 0.00 0.00 0.00 32 1010.5
20260906204004 36 131 11.3 20.9 0.00 0.00 0.00 32 1010.6
20260906203504 36 159 11.3 22.5 0.00 0.00 0.00 32 1010.6
20260906203005 36 183 11.3 22.5 0.00 0.00 0.00 32 1010.6
20260906202505 37 129 9.7 22.5 0.00 0.00 0.00 32 1010.6
20260906202005 37 103 11.3 22.5 0.00 0.00 0.00 32 1010.8
20260906201505 36 219 11.3 24.1 0.00 0.00 0.00 33 1010.7
20260906201004 36 186 11.3 24.1 0.00 0.00 0.00 34 1010.9
20260906200504 35 172 11.3 22.5 0.00 0.00 0.00 34 1011.0
20260906200004 35 158 12.9 22.5 0.00 0.00 0.00 35 1011.0
20260906195504 35 179 11.3 22.5 0.00 0.00 0.00 36 1011.1
20260906195004 34 102 8.0 22.5 0.00 0.00 0.00 36 1011.0
20260906193505 35 145 14.5 25.7 0.00 0.00 0.00 36 1011.4
20260906193005 35 106 12.9 22.5 0.00 0.00 0.00 36 1011.4
20260906192504 35 123 11.3 25.7 0.00 0.00 0.00 36 1011.4
20260906192004 35 116 8.0 25.7 0.00 0.00 0.00 35 1011.5
20260906191005 35 145 14.5 25.7 0.00 0.00 0.00 35 1011.7
20260906190505 35 122 11.3 25.7 0.00 0.00 0.00 35 1011.7
20260906190004 35 197 11.3 22.5 0.00 0.00 0.00 34 1011.8
20260906185504 35 130 12.9 25.7 0.00 0.00 0.00 35 1012.0
20260906185005 35 156 11.3 25.7 0.00 0.00 0.00 35 1011.9
20260906184504 35 187 9.7 19.3 0.00 0.00 0.00 36 1012.0
20260906184004 35 106 9.7 19.3 0.00 0.00 0.00 37 1012.1
20260906183505 35 162 11.3 20.9 0.00 0.00 0.00 36 1012.3
20260906182004 35 148 9.7 24.1 0.00 0.00 0.00 36 1012.5
20260906181504 35 128 11.3 29.0 0.00 0.00 0.00 35 1012.5
20260906181004 35 151 14.5 29.0 0.00 0.00 0.00 35 1012.5
20260906180504 35 135 16.1 25.7 0.00 0.00 0.00 36 1012.5
20260906180004 35 153 11.3 25.7 0.00 0.00 0.00 35 1012.6
20260906175505 35 123 9.7 24.1 0.00 0.00 0.00 35 1012.7
20260906175004 35 235 11.3 25.7 0.00 0.00 0.00 36 1012.6
20260906174504 35 181 11.3 25.7 0.00 0.00 0.00 36 1012.8
20260906174005 35 138 11.3 25.7 0.00 0.00 0.00 36 1012.7
20260906173004 35 186 11.3 25.7 0.00 0.00 0.00 37 1012.8
20260906172504 34 187 8.0 19.3 0.00 0.00 0.00 38 1012.9
20260906172005 34 131 9.7 20.9 0.00 0.00 0.00 38 1012.9
20260906171504 34 152 11.3 22.5 0.00 0.00 0.00 38 1013.0
20260906171004 34 151 11.3 22.5 0.00 0.00 0.00 38 1013.1
20260906170504 34 136 9.7 24.1 0.00 0.00 0.00 38 1013.1
20260906170005 33 115 11.3 24.1 0.00 0.00 0.00 38 1013.1
20260906165504 33 221 9.7 24.1 0.00 0.00 0.00 38 1013.2
20260906165004 33 155 9.7 27.4 0.00 0.00 0.00 39 1013.1
20260906164004 33 104 11.3 24.1 0.00 0.00 0.00 40 1013.3
20260906163504 33 176 9.7 20.9 0.00 0.00 0.00 40 1013.1
20260906163004 33 105 8.0 19.3 0.00 0.00 0.00 42 1013.2
20260906162504 33 119 4.8 19.3 0.00 0.00 0.00 41 1013.2
20260906162004 33 65 4.8 14.5 0.00 0.00 0.00 42 1013.3
20260906161504 33 174 4.8 14.5 0.00 0.00 0.00 42 1013.2
20260906161004 33 161 4.8 14.5 0.00 0.00 0.00 42 1013.2
20260906160504 33 203 4.8 14.5 0.00 0.00 0.00 44 1013.2
20260906160004 32 204 4.8 14.5 0.00 0.00 0.00 44 1013.2
20260906155504 32 72 3.2 8.0 0.00 0.00 0.00 45 1013.2
20260906155005 32 328 3.2 8.0 0.00 0.00 0.00 45 1013.1
20260906154504 32 88 4.8 9.7 0.00 0.00 0.00 45 1013.2
20260906154005 32 129 4.8 11.3 0.00 0.00 0.00 47 1013.2
20260906153504 32 181 4.8 11.3 0.00 0.00 0.00 47 1013.2
20260906153004 31 231 4.8 12.9 0.00 0.00 0.00 47 1013.2
20260906152504 31 177 3.2 12.9 0.00 0.00 0.00 48 1013.1
20260906151504 31 243 4.8 11.3 0.00 0.00 0.00 49 1013.1
20260906151004 31 188 3.2 8.0 0.00 0.00 0.00 49 1013.1
20260906150504 31 264 4.8 9.7 0.00 0.00 0.00 50 1013.1
20260906150004 30 198 3.2 9.7 0.00 0.00 0.00 51 1013.1
20260906145504 30 264 3.2 9.7 0.00 0.00 0.00 52 1013.1
20260906145004 30 250 3.2 9.7 0.00 0.00 0.00 53 1013.0
20260906144504 30 256 1.6 9.7 0.00 0.00 0.00 53 1013.0
20260906143004 28 173 3.2 8.0 0.00 0.00 0.00 55 1013.1
20260906142504 28 170 4.8 11.3 0.00 0.00 0.00 56 1013.0
20260906141504 28 193 6.4 16.1 0.00 0.00 0.00 57 1013.2
20260906141004 27 188 4.8 14.5 0.00 0.00 0.00 58 1013.2
20260906135504 26 207 3.2 4.8 0.00 0.00 0.00 63 1013.0
20260906135004 26 182 3.2 4.8 0.00 0.00 0.00 64 1013.1
20260906134003 25 130 3.2 4.8 0.00 0.00 0.00 67 1013.0
20260906133004 24 84 3.2 4.8 0.00 0.00 0.00 68 1013.0
20260906132504 23 84 3.2 4.8 0.00 0.00 0.00 68 1012.9
20260906132004 23 84 3.2 4.8 0.00 0.00 0.00 68 1012.9
20260906131504 23 84 3.2 4.8 0.00 0.00 0.00 68 1012.8
20260906130504 23 84 4.8 4.8 0.00 0.00 0.00 68 1012.6
20260906125504 23 84 4.8 4.8 0.00 0.00 0.00 67 1012.7
20260906124504 23 57 3.2 4.8 0.00 0.00 0.00 66 1012.5
20260906124003 23 57 1.6 4.8 0.00 0.00 0.00 66 1012.5
20260906123506 23 45 0.0 4.8 0.00 0.00 0.00 65 1012.3
20260906123007 23 355 0.0 0.0 0.00 0.00 0.00 65 1012.3
20260906122506 23 355 0.0 0.0 0.00 0.00 0.00 65 1012.3
20260906122006 23 355 0.0 0.0 0.00 0.00 0.00 65 1012.3
20260906121006 23 355 0.0 0.0 0.00 0.00 0.00 65 1012.3
20260906120506 23 355 0.0 0.0 0.00 0.00 0.00 65 1012.1
20260906120006 24 355 0.0 0.0 0.00 0.00 0.00 64 1012.1
20260906115506 24 355 0.0 0.0 0.00 0.00 0.00 64 1012.0
20260906115006 24 355 0.0 0.0 0.00 0.00 0.00 64 1012.0
20260906114506 24 355 0.0 0.0 0.00 0.00 0.00 64 1012.0
20260906114007 24 355 0.0 1.6 0.00 0.00 0.00 64 1011.9
20260906113506 24 355 1.6 4.8 0.00 0.00 0.00 64 1012.0
20260906113006 24 355 3.2 4.8 0.00 0.00 0.00 64 1011.9
20260906112506 24 355 1.6 4.8 0.00 0.00 0.00 63 1012.0
20260906111006 25 234 1.6 4.8 0.00 0.00 0.00 61 1011.9
20260906110506 25 234 3.2 4.8 0.00 0.00 0.00 61 1011.9
20260906110005 25 234 3.2 4.8 0.00 0.00 0.00 61 1011.9
20260906105506 25 234 1.6 4.8 0.00 0.00 0.00 60 1011.8
20260906105006 25 234 1.6 4.8 0.00 0.00 0.00 59 1011.8
20260906104506 25 234 3.2 4.8 0.00 0.00 0.00 59 1011.6
20260906104005 25 234 3.2 9.7 0.00 0.00 0.00 59 1011.5
20260906103506 25 232 4.8 9.7 0.00 0.00 0.00 58 1011.5
20260906103006 25 205 3.2 8.0 0.00 0.00 0.00 58 1011.5
20260906102006 26 248 3.2 4.8 0.00 0.00 0.00 57 1011.4
20260906101506 26 248 3.2 4.8 0.00 0.00 0.00 57 1011.3
20260906101006 26 248 3.2 4.8 0.00 0.00 0.00 57 1011.4
20260906100506 26 248 3.2 4.8 0.00 0.00 0.00 56 1011.4
20260906100006 26 276 0.0 4.8 0.00 0.00 0.00 57 1011.3
20260906095506 26 172 0.0 3.2 0.00 0.00 0.00 56 1011.2
20260906095006 27 172 1.6 4.8 0.00 0.00 0.00 56 1011.1
20260906094505 27 172 3.2 4.8 0.00 0.00 0.00 56 1011.1
20260906093506 27 254 3.2 11.3 0.00 0.00 0.00 56 1011.2
20260906093006 27 247 4.8 11.3 0.00 0.00 0.00 55 1011.2
20260906092506 27 218 4.8 11.3 0.00 0.00 0.00 56 1011.2
20260906091005 27 231 9.7 19.3 0.00 0.00 0.00 56 1011.0
20260906090006 27 220 12.9 22.5 0.00 0.00 0.00 56 1010.9
20260906085506 27 198 11.3 22.5 0.00 0.00 0.00 56 1011.0
20260906085006 27 217 9.7 22.5 0.00 0.00 0.00 56 1011.0
20260906084506 27 210 4.8 19.3 0.00 0.00 0.00 56 1010.9
20260906084006 27 209 4.8 11.3 0.00 0.00 0.00 55 1010.9
20260906083506 27 206 4.8 8.0 0.00 0.00 0.00 55 1011.0
20260906083006 27 252 4.8 9.7 0.00 0.00 0.00 53 1011.0
20260906082505 27 242 3.2 9.7 0.00 0.00 0.00 53 1011.0
20260906082006 27 284 1.6 8.0 0.00 0.00 0.00 53 1011.0
20260906081506 27 311 1.6 4.8 0.00 0.00 0.00 52 1011.0
20260906080506 27 186 0.0 4.8 0.00 0.00 0.00 51 1011.0
20260906080006 28 186 1.6 8.0 0.00 0.00 0.00 51 1011.1
20260906075506 28 186 4.8 16.1 0.00 0.00 0.00 51 1011.2
20260906075006 28 179 8.0 19.3 0.00 0.00 0.00 51 1011.2
20260906073005 28 171 9.7 20.9 0.00 0.00 0.00 50 1011.3
20260906072506 28 172 9.7 19.3 0.00 0.00 0.00 49 1011.2
20260906071505 28 180 8.0 19.3 0.00 0.00 0.00 48 1011.3
20260906071006 28 177 8.0 16.1 0.00 0.00 0.00 48 1011.2
20260906070005 28 166 9.7 19.3 0.00 0.00 0.00 47 1011.3
20260906065506 28 167 9.7 19.3 0.00 0.00 0.00 47 1011.4
20260906064506 29 171 9.7 19.3 0.00 0.00 0.00 46 1011.5
20260906064006 29 172 9.7 19.3 0.00 0.00 0.00 46 1011.4
20260906063506 29 191 9.7 19.3 0.00 0.00 0.00 46 1011.5
20260906063006 29 181 9.7 19.3 0.00 0.00 0.00 46 1011.5
20260906062505 29 180 9.7 19.3 0.00 0.00 0.00 45 1011.5
20260906062006 29 167 9.7 24.1 0.00 0.00 0.00 45 1011.4
20260906061506 29 171 12.9 24.1 0.00 0.00 0.00 45 1011.5
20260906061005 29 167 11.3 24.1 0.00 0.00 0.00 45 1011.5
20260906060005 29 182 9.7 22.5 0.00 0.00 0.00 45 1011.6
20260906055505 30 175 11.3 22.5 0.00 0.00 0.00 45 1011.7
20260906055006 30 172 9.7 20.9 0.00 0.00 0.00 45 1011.6
20260906054005 30 161 9.7 19.3 0.00 0.00 0.00 45 1011.6
20260906053506 30 166 9.7 19.3 0.00 0.00 0.00 45 1011.6
20260906053005 30 158 9.7 22.5 0.00 0.00 0.00 45 1011.4
20260906052506 30 164 11.3 22.5 0.00 0.00 0.00 45 1011.4
20260906052006 30 161 11.3 20.9 0.00 0.00 0.00 45 1011.5
20260906051506 30 153 9.7 20.9 0.00 0.00 0.00 45 1011.5
20260906051005 30 156 9.7 19.3 0.00 0.00 0.00 45 1011.5
20260906050506 30 159 9.7 19.3 0.00 0.00 0.00 46 1011.5
20260906050006 30 153 9.7 19.3 0.00 0.00 0.00 46 1011.6
20260906045505 30 161 9.7 19.3 0.00 0.00 0.00 45 1011.6
20260906045006 29 149 9.7 16.1 0.00 0.00 0.00 45 1011.5
20260906044505 29 158 8.0 14.5 0.00 0.00 0.00 45 1011.5
20260906044006 30 153 8.0 11.3 0.00 0.00 0.00 45 1011.5
20260906043506 30 143 8.0 11.3 0.00 0.00 0.00 44 1011.5
20260906043005 30 146 8.0 14.5 0.00 0.00 0.00 44 1011.5
20260906042505 30 149 8.0 14.5 0.00 0.00 0.00 44 1011.5
20260906042005 30 145 4.8 11.3 0.00 0.00 0.00 44 1011.4
20260906041506 30 138 8.0 11.3 0.00 0.00 0.00 43 1011.4
20260906041005 30 126 4.8 11.3 0.00 0.00 0.00 43 1011.4
20260906040005 30 121 4.8 8.0 0.00 0.00 0.00 42 1011.4
20260906034006 31 123 4.8 9.7 0.00 0.00 0.00 42 1011.1
20260906033506 31 130 4.8 11.3 0.00 0.00 0.00 42 1011.0
20260906033005 31 121 8.0 11.3 0.00 0.00 0.00 42 1010.9
20260906032505 31 121 4.8 11.3 0.00 0.00 0.00 42 1010.9
20260906032005 31 123 4.8 11.3 0.00 0.00 0.00 41 1011.0
20260906030506 31 141 4.8 9.7 0.00 0.00 0.00 40 1010.6
20260906030005 31 136 4.8 14.5 0.00 0.00 0.00 40 1010.5
20260906025005 31 126 4.8 14.5 0.00 0.00 0.00 39 1010.3
20260906024005 32 126 4.8 9.7 0.00 0.00 0.00 39 1010.1
20260906023506 32 140 4.8 9.7 0.00 0.00 0.00 39 1010.2
20260906023005 32 138 4.8 9.7 0.00 0.00 0.00 38 1010.1
20260906022006 32 129 4.8 9.7 0.00 0.00 0.00 37 1010.0
20260906021005 32 125 4.8 9.7 0.00 0.00 0.00 37 1009.8
20260906020506 32 122 4.8 14.5 0.00 0.00 0.00 37 1009.7
20260906020005 33 119 8.0 14.5 0.00 0.00 0.00 36 1009.7
20260906015005 33 135 4.8 11.3 0.00 0.00 0.00 36 1009.7
20260906014506 33 140 4.8 14.5 0.00 0.00 0.00 36 1009.6
20260906014005 33 143 8.0 14.5 0.00 0.00 0.00 36 1009.4
20260906013505 33 145 8.0 19.3 0.00 0.00 0.00 35 1009.4
20260906013005 33 146 8.0 19.3 0.00 0.00 0.00 35 1009.4
20260906012006 33 132 9.7 16.1 0.00 0.00 0.00 35 1009.2
20260906011505 34 123 8.0 19.3 0.00 0.00 0.00 35 1009.1
20260906010505 34 130 9.7 20.9 0.00 0.00 0.00 34 1009.1
20260906005505 35 131 9.7 16.1 0.00 0.00 0.00 33 1009.0
20260906005006 35 122 9.7 19.3 0.00 0.00 0.00 33 1008.9
20260906004505 35 128 11.3 20.9 0.00 0.00 0.00 33 1008.8
20260906004005 35 129 9.7 20.9 0.00 0.00 0.00 33 1008.9
20260906003505 35 155 9.7 20.9 0.00 0.00 0.00 33 1008.8
20260906003005 35 141 8.0 19.3 0.00 0.00 0.00 33 1008.8
20260906002505 35 136 6.4 19.3 0.00 0.00 0.00 32 1008.7
20260906002005 36 124 9.7 22.5 0.00 0.00 0.00 32 1008.8
20260906001505 36 130 11.3 22.5 0.00 0.00 0.00 32 1008.7
20260906001005 36 127 9.7 19.3 0.00 0.00 0.00 32 1008.6
20260906000505 36 155 9.7 20.9 0.00 0.00 0.00 33 1008.7
20260905235505 36 138 11.3 20.9 0.00 0.00 0.00 32 1008.6
20260905235005 36 137 8.0 16.1 0.00 0.00 0.00 32 1008.4
20260905234505 36 130 8.0 14.5 0.00 0.00 0.00 32 1008.4
20260905234005 36 148 9.7 19.3 0.00 0.00 0.00 32 1008.4
20260905233504 36 128 12.9 22.5 0.00 0.00 0.00 32 1008.4
20260905232505 37 125 11.3 20.9 0.00 0.00 0.00 32 1008.3
20260905232005 37 108 12.9 22.5 0.00 0.00 0.00 32 1008.2
20260905231505 37 115 11.3 24.1 0.00 0.00 0.00 32 1008.2
20260905230004 37 113 12.9 24.1 0.00 0.00 0.00 31 1008.2
20260905225504 37 136 9.7 20.9 0.00 0.00 0.00 31 1008.3
20260905225005 37 153 4.8 20.9 0.00 0.00 0.00 30 1008.4
20260905224505 37 179 9.7 25.7 0.00 0.00 0.00 30 1008.3
20260905224005 37 127 11.3 25.7 0.00 0.00 0.00 30 1008.3
20260905223505 37 128 4.8 19.3 0.00 0.00 0.00 30 1008.3
20260905223005 37 200 4.8 19.3 0.00 0.00 0.00 30 1008.3
20260905222505 37 179 9.7 20.9 0.00 0.00 0.00 30 1008.3
20260905221505 37 132 11.3 22.5 0.00 0.00 0.00 30 1008.3
20260905221005 37 166 9.7 19.3 0.00 0.00 0.00 30 1008.3
20260905220505 37 160 8.0 19.3 0.00 0.00 0.00 30 1008.4
20260905220005 37 115 8.0 19.3 0.00 0.00 0.00 31 1008.3
20260905215505 37 85 8.0 14.5 0.00 0.00 0.00 30 1008.4